Tracking 19906 objects as of 24-Oct-2019
HD Live streaming from Space Station
objects crossing your sky now

BREEZE-M DEB (TANK)

Track BREEZE-M DEB (TANK) now!


NORAD ID: 28477
Int'l Code: 2004-041C
Perigee: 1,718.0 km
Apogee: 34,914.3 km
Inclination: 47.8 °
Period: 643.4 minutes
Semi major axis: 24687 km
RCS: 7.1658 m2 (large)
Launch date: October 14, 2004
Source: Commonwealth of Independent States (former USSR) (CIS)
Launch site: TYURATAM MISSILE AND SPACE COMPLEX (TTMTR)

Note: This is SATELLITE DEBRIS
aabbcc
Your satellite tracking list
Your tracking list is empty




NASA's NSSDC Master Catalog

Two Line Element Set (TLE):
1 28477U 04041C   19296.10331295 -.00000016 +00000-0 +00000-0 0  9996
2 28477 047.8433 270.4784 6723386 355.8081 000.5065 02.23818618122657
Source of the keplerian elements: AFSPC